Find Starlink 32784

NORAD ID: 62607 Int'l Des: 2025-008 Owner: SPXS Country: US Constellation: starlink operational
LEOCIRCULAR

Current View

Loading 3D Globe...

About Starlink 32784

Starlink 32784 (NORAD 62607) is a starlink constellation satellite (v2 mini) launched Jan 13, 2025 by SPXS of US. It operates in LEO, CIRCULAR orbit with a mass of 730.00 kg.

About Starlink 32784

Description loading...

Upcoming Passes

Passes for default location (London). Set your location on the main map for personalized predictions.

Altitude History

Loading altitude history...

Two-Line Element Set

1 62607U 25008W 26169.06276872 .00138328 00000-0 24223-2 0 9998
2 62607 42.9917 59.0132 0021786 225.9082 133.9985 15.49134291 81115
Epoch: Jun 18, 2026 • Age: 15 hours

Current Status

Altitude 410.3 km
Velocity 7.67 km/s
Sub-Earth Point -24.40°S, 111.93°E
Launch Date Jan 13, 2025
Age 1.4 years
Type internet

Technical Details

Classification Payload
Mass 730.00 kg
Dry Mass 700.00 kg
Total Mass 730.00 kg
Length 0.30 m
Diameter 4.10 m
Span 29.00 m
Shape Box + pan
Manufacturer SPXS
Bus Type Starlink V2M
Phase Status In Orbit
Owner/State SPXS/US

Most Searched